Location: Glencliff
(36.1226°N, 86.7183°W)
Time: 18:27:13
(UTC+00:00)

Cosmos 1634 Rocket - Pass Details

Date: 25 August 2019
Orbit: 961 x 991 km, 82.9° (Epoch: 15 October)

Event Time Altitude Azimuth Distance (km) Brightness Sun altitude
Rises 10:33:56 0° 353° (N) 3,676 7.2 -8.4°
Reaches altitude 10° 10:36:26 10° 354° (N) 2,730 6.5 -7.9°
Maximum altitude 10:42:43 87° 85° (E) 987 4.1 -6.7°
Drops below altitude 10° 10:49:00 10° 174° (S) 2,733 6.2 -5.5°
Sets 10:51:31 0° 175° (S) 3,681 6.9 -5.0°
